Time,TemperatureF,DewpointF,PressureIn,WindDirection,WindDirectionDegrees,WindSpeedMPH,WindSpeedGustMPH,Humidity,HourlyPrecipIn,Conditions,Clouds,dailyrainin,SoftwareType,DateUTC
2013-10-27 00:02:00,-999.0,-99.9,-100.00,WSW,255,8.0,-999.0,-999,-99.99,,,-99.99,,2013-10-27 04:02:00,
2013-10-27 00:24:00,45.0,31.0,-100.00,WSW,252,7.0,-999.0,56,-99.99,,,-99.99,,2013-10-27 04:24:00,
2013-10-27 00:34:00,45.0,31.0,-100.00,WSW,252,7.0,-999.0,56,-99.99,,,-99.99,,2013-10-27 04:34:00,
2013-10-27 00:44:00,45.0,31.0,-100.00,WSW,252,7.0,-999.0,56,-99.99,,,-99.99,,2013-10-27 04:44:00,
2013-10-27 01:10:00,44.0,32.0,-100.00,WSW,248,3.0,-999.0,60,-99.99,,,-99.99,,2013-10-27 05:10:00,
2013-10-27 01:13:00,45.0,31.0,-100.00,West,263,5.0,-999.0,57,-99.99,,,-99.99,,2013-10-27 05:13:00,
2013-10-27 01:23:00,45.0,31.0,-100.00,West,263,5.0,-999.0,57,-99.99,,,-99.99,,2013-10-27 05:23:00,
2013-10-27 01:43:00,44.0,32.0,-100.00,WSW,248,3.0,-999.0,60,-99.99,,,-99.99,,2013-10-27 05:43:00,
2013-10-27 01:52:00,44.0,32.0,-100.00,WSW,248,3.0,-999.0,60,-99.99,,,-99.99,,2013-10-27 05:52:00,
2013-10-27 02:01:00,44.0,32.0,-100.00,WSW,248,3.0,-999.0,60,-99.99,,,-99.99,,2013-10-27 06:01:00,
2013-10-27 02:22:00,43.0,32.0,-100.00,West,262,2.0,-999.0,63,-99.99,,,-99.99,,2013-10-27 06:22:00,
2013-10-27 02:33:00,43.0,32.0,-100.00,West,262,2.0,-999.0,63,-99.99,,,-99.99,,2013-10-27 06:33:00,
2013-10-27 02:53:00,42.0,32.0,-100.00,WSW,256,3.0,-999.0,68,-99.99,,,-99.99,,2013-10-27 06:53:00,
2013-10-27 03:02:00,42.0,32.0,-100.00,WSW,256,3.0,-999.0,68,-99.99,,,-99.99,,2013-10-27 07:02:00,
2013-10-27 03:12:00,42.0,32.0,-100.00,WSW,256,3.0,-999.0,68,-99.99,,,-99.99,,2013-10-27 07:12:00,
2013-10-27 03:22:00,42.0,32.0,-100.00,WSW,256,3.0,-999.0,68,-99.99,,,-99.99,,2013-10-27 07:22:00,
2013-10-27 03:52:00,41.0,32.0,-100.00,West,271,2.0,-999.0,71,-99.99,,,-99.99,,2013-10-27 07:52:00,
2013-10-27 04:03:00,41.0,32.0,-100.00,West,271,2.0,-999.0,71,-99.99,,,-99.99,,2013-10-27 08:03:00,
2013-10-27 04:22:00,38.0,32.0,-100.00,SSE,148,0.0,-999.0,79,-99.99,,,-99.99,,2013-10-27 08:22:00,
2013-10-27 05:21:00,37.0,33.0,-100.00,SSW,195,0.0,-999.0,86,-99.99,,,-99.99,,2013-10-27 09:21:00,
2013-10-27 05:54:00,37.0,33.0,-100.00,North,0,0.0,-999.0,87,-99.99,,,-99.99,,2013-10-27 09:54:00,
2013-10-27 06:13:00,36.0,33.0,-100.00,North,0,0.0,-999.0,88,-99.99,,,-99.99,,2013-10-27 10:13:00,
2013-10-27 06:23:00,36.0,33.0,-100.00,North,0,0.0,-999.0,88,-99.99,,,-99.99,,2013-10-27 10:23:00,
2013-10-27 06:33:00,36.0,33.0,-100.00,North,0,0.0,-999.0,88,-99.99,,,-99.99,,2013-10-27 10:33:00,
2013-10-27 06:53:00,36.0,33.0,-100.00,NNW,340,2.0,-999.0,91,-99.99,,,-99.99,,2013-10-27 10:53:00,
2013-10-27 07:03:00,36.0,33.0,-100.00,NNW,340,2.0,-999.0,91,-99.99,,,-99.99,,2013-10-27 11:03:00,
2013-10-27 08:52:00,34.0,32.0,-100.00,ENE,71,2.0,-999.0,94,-99.99,,,-99.99,,2013-10-27 12:52:00,
2013-10-27 09:21:00,36.0,35.0,-100.00,ESE,113,1.0,-999.0,95,-99.99,,,-99.99,,2013-10-27 13:21:00,
2013-10-27 09:52:00,40.0,38.0,-100.00,East,96,1.0,-999.0,91,-99.99,,,-99.99,,2013-10-27 13:52:00,
2013-10-27 10:22:00,44.0,39.0,-100.00,South,177,1.0,-999.0,82,-99.99,,,-99.99,,2013-10-27 14:22:00,
2013-10-27 13:53:00,55.0,36.0,-100.00,SW,236,6.0,-999.0,48,-99.99,,,-99.99,,2013-10-27 17:53:00,
2013-10-27 14:01:00,55.0,36.0,-100.00,SW,236,6.0,-999.0,48,-99.99,,,-99.99,,2013-10-27 18:01:00,
2013-10-27 15:12:00,58.0,35.0,-100.00,WSW,252,8.0,-999.0,43,-99.99,,,-99.99,,2013-10-27 19:12:00,
2013-10-27 16:52:00,59.0,36.0,-100.00,WSW,247,9.0,-999.0,41,-99.99,,,-99.99,,2013-10-27 20:52:00,
2013-10-27 17:11:00,60.0,35.0,-100.00,WSW,247,8.0,-999.0,40,-99.99,,,-99.99,,2013-10-27 21:11:00,
2013-10-27 17:21:00,60.0,35.0,-100.00,WSW,247,8.0,-999.0,40,-99.99,,,-99.99,,2013-10-27 21:21:00,
2013-10-27 17:34:00,60.0,35.0,-100.00,WSW,247,8.0,-999.0,40,-99.99,,,-99.99,,2013-10-27 21:34:00,
2013-10-27 18:24:00,58.0,37.0,-100.00,WNW,283,4.0,-999.0,44,-99.99,,,-99.99,,2013-10-27 22:24:00,
2013-10-27 18:33:00,58.0,37.0,-100.00,WNW,283,4.0,-999.0,44,-99.99,,,-99.99,,2013-10-27 22:33:00,
2013-10-27 19:42:00,51.0,37.0,-100.00,NNW,339,3.0,-999.0,58,-99.99,,,-99.99,,2013-10-27 23:42:00,
2013-10-27 19:52:00,51.0,37.0,-100.00,NNW,339,3.0,-999.0,58,-99.99,,,-99.99,,2013-10-27 23:52:00,
2013-10-27 20:02:00,51.0,37.0,-100.00,NNW,339,3.0,-999.0,58,-99.99,,,-99.99,,2013-10-28 00:02:00,
2013-10-27 20:11:00,51.0,37.0,-100.00,NNW,339,3.0,-999.0,58,-99.99,,,-99.99,,2013-10-28 00:11:00,
2013-10-27 20:22:00,49.0,37.0,-100.00,NE,51,2.0,-999.0,62,-99.99,,,-99.99,,2013-10-28 00:22:00,
2013-10-27 20:32:00,49.0,37.0,-100.00,NE,51,2.0,-999.0,62,-99.99,,,-99.99,,2013-10-28 00:32:00,
2013-10-27 20:52:00,47.0,37.0,-100.00,East,89,2.0,-999.0,67,-99.99,,,-99.99,,2013-10-28 00:52:00,
2013-10-27 21:12:00,46.0,37.0,-100.00,East,81,1.0,-999.0,69,-99.99,,,-99.99,,2013-10-28 01:12:00,
2013-10-27 21:21:00,46.0,37.0,-100.00,East,81,1.0,-999.0,69,-99.99,,,-99.99,,2013-10-28 01:21:00,
2013-10-27 21:32:00,46.0,37.0,-100.00,East,81,1.0,-999.0,69,-99.99,,,-99.99,,2013-10-28 01:32:00,
2013-10-27 21:52:00,44.0,37.0,-100.00,ESE,112,2.0,-999.0,74,-99.99,,,-99.99,,2013-10-28 01:52:00,
2013-10-27 22:12:00,44.0,37.0,-100.00,East,95,2.0,-999.0,76,-99.99,,,-99.99,,2013-10-28 02:12:00,
2013-10-27 22:22:00,44.0,37.0,-100.00,East,100,1.0,-999.0,77,-99.99,,,-99.99,,2013-10-28 02:22:00,